Home > Weather > Bakersfield > Past weeks

Flag for USA Past Weather in Bakersfield, California, USA — Yesterday and Last 2 Weeks

Now
90 °F

Sunny.


Feels Like: 87 °F
Forecast: 80 / 110 °F
Wind: 3 mph from South

Location: Meadows Field

Current Time: Jul 29, 2016 at 9:15:30 AM

Latest Report: Jul 29, 2016 at 8:54 AM


Visibility: 6 mi

Pressure: 29.81 "Hg

Humidity: 26%

Dew Point: 51 °F

Location of BakersfieldLocation

Past Weather in Bakersfield — Graph

°F

Bakersfield Temperature Yesterday

Maximum temperature yesterday: 108 °F (at 4:54 PM)
Minimum temperature yesterday: 81 °F (at 4:54 AM)
Average temperature yesterday: 94 °F

High & Low Weather Summary for the Past Weeks

 TemperatureHumidityPressure
High108 °F (Jul 28, 4:54 PM)59% (Jul 20, 3:54 AM)30.07 "Hg (Jul 20, 3:54 AM)
Low67 °F (Jul 19, 5:54 AM)7% (Jul 24, 4:54 PM)29.71 "Hg (Jul 16, 5:54 PM)
Average88 °F23%29.87 "Hg
* Reported Jul 14 7:54 AM — Jul 29 7:54 AM, Bakersfield, Weather by CustomWeather, © 2016

Note: Actual official high and low records may vary slightly from our data, if they occured in-between our weather recording intervals... More about our weather records

Advertising

Bakersfield Weather History for the Previous 24 Hours

Scroll right to see more
 ConditionsComfort  
Time TempWeatherWind HumidityBarometerVisibility
7:54 AM
Fri, Jul 29
86 °FSunny.7 mph28%29.80 "Hg7 mi
6:54 AM82 °FClear.No wind31%29.79 "Hg7 mi
5:54 AM81 °FClear.3 mph28%29.78 "Hg8 mi
4:54 AM80 °FClear.3 mph31%29.77 "Hg8 mi
3:54 AM84 °FClear.3 mph26%29.77 "Hg9 mi
2:54 AM85 °FClear.No wind23%29.77 "Hg9 mi
1:54 AM87 °FClear.No wind21%29.77 "Hg9 mi
12:54 AM88 °FClear.No wind21%29.77 "Hg10 mi
11:54 PM
Thu, Jul 28
91 °FClear.5 mph17%29.78 "Hg10 mi
10:54 PM91 °FClear.7 mph17%29.77 "Hg10 mi
9:54 PM95 °FClear.8 mph13%29.77 "Hg10 mi
8:54 PM93 °FSunny.6 mph20%29.75 "Hg8 mi
7:54 PM100 °FSunny.9 mph16%29.74 "Hg7 mi
6:54 PM104 °FSunny.9 mph13%29.73 "Hg9 mi
5:54 PM108 °FSunny.12 mph9%29.73 "Hg10 mi
4:54 PM108 °FSunny.9 mph10%29.74 "Hg10 mi
3:54 PM107 °FSunny.12 mph11%29.75 "Hg8 mi
2:54 PM106 °FSunny.10 mph9%29.78 "Hg9 mi
1:54 PM104 °FSunny.7 mph10%29.80 "Hg10 mi
12:54 PM101 °FSunny.6 mph10%29.83 "Hg10 mi
11:54 AM99 °FSunny.8 mph15%29.84 "Hg10 mi
10:54 AM97 °FSunny.6 mph17%29.85 "Hg10 mi
9:54 AM94 °FSunny.5 mph19%29.85 "Hg9 mi
Weather by CustomWeather, © 2016

See weather overviewHow to use our weather pages